Zurück zum Katalog

DELTA 1 DEB

AktivLEO
NORAD 39098·DEBRIS·🇺🇸 United States

Gestartet Jul 14, 1977 von Cape Canaveral Space Force Station

Loading…

Nächste Überflüge (nächste 24 Stunden)

TLE

AlterndSource: Space-Track

Epoche: Sep 12, 2026, 05:59 UTC

1 39098U 77065GK  26255.24950255  .00003607  00000-0  57310-3 0  9991
2 39098  29.0331 231.6210 0517371 296.0184  58.8002 14.07603205637634

Verfolge DELTA 1 DEB in Echtzeit mit AllMySat

Download on the App Store